Regional Weather Roundup
Issued by NWS Wakefield, VA

Home | Current Version | Previous Version | Graphics & Text | Print | Product List | Glossary On
Versions: 1 2 3 4 5 6 7 8 9 10 11 12 13 14 15 16 17 18 19 20 21 22 23 24 25 26 27 28 29 30 31 32 33 34 35 36 37 38 39 40 41 42 43 44 45 46 47 48 49 50
000
ASUS41 KAKQ 251514
RWRAKQ

REGIONAL WEATHER ROUNDUP
NATIONAL WEATHER SERVICE WAKEFIELD VA
1000 AM EST SAT FEB 25 2017

Note: "fair" indicates few or no clouds below 12,000 feet with no
significant weather and/or obstructions to visibility. * = Denotes
station may not report precipitation (e.g., rain,snow,etc.),
thunder or fog.

VAZ042-051-052>054-056-251600-
NORTHERN VIRGINIA

CITY           SKY/WX    TMP DP  RH WIND       PRES   REMARKS
WASH NATIONAL  PTSUNNY   66  58  75 S12       29.64F
DULLES         PTSUNNY   67  57  70 S15G25    29.62F
FORT BELVOIR   MOSUNNY   67  57  68 S9        29.64F
QUANTICO       MOSUNNY   59  55  87 SW8       29.66F
FREDERICKSBRG* PTSUNNY   68  59  73 S14       29.65S
STAFFORD*      PTSUNNY   67  59  76 SW10      29.69F
WARRENTON      MOSUNNY   69  55  61 SW9G20    29.64S
CULPEPER*      PTSUNNY   67  59  74 SW14      29.65F
MANASSAS*      PTSUNNY   68  58  70 S15       29.63F
LEESBURG*      MOSUNNY   66  61  82 MISG      29.63F
WINCHESTER     CLOUDY    63  54  72 W3        29.60S
FRONT ROYAL*   CLOUDY    64  54  68 SW3       29.59F
LURAY*         NOT AVBL
$$

VAZ048-049-060>072-079>083-251600-
CENTRAL AND SOUTH CENTRAL VIRGINIA

CITY           SKY/WX    TMP DP  RH WIND       PRES   REMARKS
RICHMOND       MOSUNNY   69  59  70 S17G24    29.68F
CHESTERFIELD*  FAIR      70  48  46 S13G23    29.69F
PETERSBURG*    MOSUNNY   68  57  68 S8        29.70F
HANOVER        MOSUNNY   69  56  62 S13       29.69F
TAPPAHANNOCK*  MOSUNNY   68  58  69 S12G17    29.69F
QUINTON*       NOT AVBL
CHARLOTTSVILLE CLOUDY    68  57  68 S15G24    29.63F
GORDONSVILLE*  NOT AVBL
ORANGE*        PTSUNNY   64  55  72 S14G24    29.65F
LOUISA*        MOSUNNY   72  61  68 SW6G20    29.65F
BUMPASS*       NOT AVBL
FARMVILLE*     MOSUNNY   70  58  67 S14G22    29.66F
CREWE*         NOT AVBL
FORT PICKETT*  NOT AVBL
CHASE CITY*    NOT AVBL
CLARKSVILLE*   NOT AVBL
SOUTH HILL*    SUNNY     68  58  70 S16       29.77S
LAWRENCEVILLE* NOT AVBL
EMPORIA*       SUNNY     66  59  77 SE6       29.73F
$$

VAZ088>098-251600-
SOUTHEAST VIRGINIA

CITY           SKY/WX    TMP DP  RH WIND       PRES   REMARKS
NORFOLK        MOSUNNY   71  60  68 S13       29.73F
VIRGINIA BEACH PTSUNNY   69  60  73 SW12      29.73F
NORFOLK NAVAL  PTSUNNY   70  59  68 S9        29.74F
WEST POINT*    MOSUNNY   68  58  71 S9G16     29.72S
SALUDA*        NOT AVBL
NEWPORT NEWS   MOSUNNY   68  59  73 SW14      29.72F
LANGLEY AFB    MOSUNNY   67  61  80 S9        29.72F
FORT EUSTIS    MOSUNNY   67  59  76 S8        29.69F
WILLIAMSBURG*  MOSUNNY   66  63  88 CALM      29.72F
HR EXEC AP*    NOT AVBL
FRANKLIN*      MOSUNNY   68  59  73 S10       29.73F
US460-WAKEFLD  SUNNY     68  61  78 VRB6      29.72F
$$

VAZ020-022-025-037-045-251600-
WEST CENTRAL AND SOUTHWEST VIRGINIA

CITY           SKY/WX    TMP DP  RH WIND       PRES   REMARKS
STAUNTON*      CLOUDY    64  55  71 SW6       29.64F
WAYNESBORO*    NOT AVBL
HOT SPRINGS VA CLOUDY    52  50  93 SW15G25   29.67F
LYNCHBURG      CLOUDY    65  55  70 SW10      29.67F
DANVILLE       MOSUNNY   69  57  65 SW15G24   29.67F
SOUTH BOSTON*  CLOUDY    69  55  62 S8        29.68F
MARTINSVILLE   CLOUDY    63  55  73 SW6       29.69F
ROANOKE        LGT RAIN  61  53  75 W12G20    29.66F
BLACKSBURG     CLOUDY    57  54  88 SW6       29.70F
DUBLIN*        CLOUDY    56  54  91 W6        29.68F
MARION*        RAIN      48  46  91 W10G22    29.74R
HILLSVILLE*    CLOUDY    55  52  89 SW13      29.68F
RICHLANDS*     CLOUDY    44  42  92 S5        29.74F
WISE*          PTSUNNY   46  36  66 W15G21    29.76S
ABINGDON*      CLOUDY    50  47  89 W10       29.76R
$$

MDZ021>025-VAZ099-100-251600-
SOUTHERN MARYLAND AND THE DELMARVA PENINSULA

CITY           SKY/WX    TMP DP  RH WIND       PRES   REMARKS
PATUXENT RIVER PTSUNNY   62  56  80 SE9       29.68F
BAY BRIDGE APT MOSUNNY   64  57  77 S15G23    29.66F
LEONARDTOWN    MOSUNNY   66  57  72 S6        29.69F
DOVER          NOT AVBL
GEORGETOWN     SUNNY     69  58  67 S15G21    29.72F
EASTON         SUNNY     68  59  73 S14       29.71F
CAMBRIDGE      SUNNY     66  59  77 S12G20    29.70F
SALISBURY      SUNNY     68  59  73 S12       29.72F
OCEAN CITY     FOG       53  51  93 S9        29.74F VSB 1/2
WALLOPS ISLAND SUNNY     59  57  93 S12       29.74F
ACCOMACK*      SUNNY     67  59  76 S12G18    29.72F
$$

NCZ012>017-030>032-251600-
NORTH CENTRAL AND EASTERN NORTH CAROLINA

CITY           SKY/WX    TMP DP  RH WIND       PRES   REMARKS
ROANOKE RAPIDS FAIR      68  61  77 S13       29.73F
RALEIGH        PTSUNNY   68  56  65 SW16      29.72F
ELIZABETH CITY SUNNY     70  61  73 S9        29.76F
AHOSKIE*         N/A     66  60  81 S9        29.74F
EDENTON*       SUNNY     68  62  80 S7        29.77F
CURRITUCK*     NOT AVBL
KILL DEVIL HLS NOT AVBL
MANTEO         SUNNY     64  59  85 SW5       29.78F
CAPE HATTERAS  SUNNY     70  60  70 NW3       29.79F
TARBORO*       NOT AVBL
GOLDSBORO      SUNNY     70  64  82 SW9       29.75F
WASHINGTON     SUNNY     67  60  78 S8        29.77F
GREENVILLE     SUNNY     70  61  73 S9        29.78F
NEW BERN       SUNNY     71  62  73 SW9       29.79F
WILMINGTON     SUNNY     70  61  73 SW8       29.80F
$$

VAZ048-251600-
ELSEWHERE

CITY           SKY/WX    TMP DP  RH WIND       PRES   REMARKS
HARRISBURG PA  CLOUDY    64  57  78 SE9       29.59F
BALTIMORE      PTSUNNY   68  58  70 S12G23    29.63F
ANNAPOLIS      MOSUNNY   60  56  86 S13G23    29.65F
ANDREWS AFB    MOSUNNY   69  58  67 S15       29.65F
PHILADELPHIA   PTSUNNY   67  56  67 S14       29.68F
HENDERSON NC   MOSUNNY   65  55  69 S14G20    29.71F
GREENSBORO     MOSUNNY   67  59  75 SW10      29.68F
ROCKY MOUNT    SUNNY     68  61  78 S14       29.75F
$$

VAZ100-251600-
MARINE

STATION/POSITION TIME  TEMP    WIND        PRES    WAVE   SWELL
                       AIR SEA DIR/SP/G            HT/PER HT/PER
                 (UTC) (F)     (DEG/KT/KT) (MB)    (FT/S) (FT/S)
CAPE MAY NJ      1448   56 45  150/ 12/ 15 1006.0F
LEWES DE         1448   65 45  180/  6/  9 1006.1F
OCEAN-CITY-INLET 1448   50 44  190/  5/  7 1007.5F
WACHAPREAGUE VA  1448   59 54  200/  8/ 10 1007.0F
THOMAS POINT MD  1500   55 45  160/ 19/ 20   N/A
GOOSES REEF MD   1500   49 45  160/ 14/ 16 1005.5    1/ 3
COVE POINT MD    1448   47     190/ 11/ 12 1006.0F
SOLOMONS ISLAND  1448   62 46  190/ 11/ 13   N/A
BISHOPS HEAD MD  1448   52 52  150/ 12/ 12 1006.0F
PINEY POINT MD   1448          200/  9/  9   N/A
POTOMAC MD       1500   51 45  170/ 10/ 12 1004.4    1/ 2
CAMBRIDGE MD     1448   65 45  180/  9/ 13 1004.7F
LEWISETTA VA     1448   64 51  220/ 11/ 15 1005.0F
RAPPAHANNOCK LGT 1448          170/ 15/ 15 1006.9F
YORK RVR RNG VA  1448   55     190/ 12/ 12 1005.7F
YORKTOWN VA      1448   66 50  210/  7/ 13 1005.8F
JAMESTOWN VA     1500   65 53  190/ 12/ 16   N/A     0
DOMINION TERM VA 1448   59     190/  3/  4 1006.7F
KIPTOPEKE VA     1448      49  170/  9/  9   N/A
CHES BAY BRIDGE  1448   65 47  200/  9/ 11 1006.8F
CAPE HENRY VA    1448   68     200/ 10/ 16   N/A
WILLOUBY STN VA  1448   64     190/ 11/ 13 1007.6F
S CRANEY ISL VA  1448   64     200/  8/  9 1006.6F
CAPE HENRY BUOY  1412      50                N/A     4/10   2/12
OFFSHORE WE BUOY 1451      52                N/A     5/11   3/11
64NM E OF VA BCH 1450   58 54  130/  2/  4 1007.9F   6/10   7/10
DUCK PIER NC     1448   59 49  160/  5/  5 1007.7F
44100 DUCK FRF   1405      53                N/A     6/11   3/11
44056 DUCK FRF   1430      51                N/A     5/11   2/11
OREGON INLET NC  1442   65 58  210/  2/  3 1008.3F
HATTERAS NC      1448   63 63  280/  3/  4 1008.5F
DIAMOND SHLS NC  1450   70 76  290/  6/ 10 1008.5F   7/11   7/11
CAPE LOOKOUT NC  1400   68     280/  2/  3 1009.0R
$$



USA.gov is the U.S. government's official web portal to all federal, state and local government web resources and services.